This is the latest recevied weather packets stored in our database for station/object IZ1UQG-1. If no packets are shown the sender has not sent any weather packets the latest 10 day(s).
| Time | Temp. | Humidity | Pressure | Rain* | Wind** | Luminosity | Snow |
|---|---|---|---|---|---|---|---|
| 1777750141 | 21.11° C | 44% | 1019.5 hPa | 175.26 mm | - | - | - |
| 1777749841 | 21.11° C | 44% | 1019.5 hPa | 133.35 mm | - | - | - |
| 1777749541 | 21.67° C | 44% | 1019.3 hPa | 97.03 mm | - | - | - |
| 1777749241 | 21.67° C | 43% | 1019.2 hPa | 150.37 mm | - | - | - |
| 1777748941 | 21.67° C | 43% | 1019.2 hPa | 140.46 mm | - | - | - |
| 1777748641 | 22.22° C | 43% | 1019.2 hPa | 168.15 mm | - | - | - |
| 1777748341 | 22.22° C | 43% | 1019.1 hPa | 101.09 mm | - | - | - |
| 1777748041 | 22.22° C | 43% | 1018.9 hPa | 190.25 mm | - | - | - |
| 1777747741 | 22.78° C | 43% | 1018.9 hPa | 149.86 mm | - | - | - |
| 1777747441 | 22.78° C | 42% | 1018.8 hPa | 156.72 mm | - | - | - |
| 1777747141 | 22.78° C | 42% | 1018.7 hPa | 136.4 mm | - | - | - |
| 1777746841 | 22.78° C | 43% | 1018.6 hPa | 148.34 mm | - | - | - |
| 1777746541 | 23.33° C | 42% | 1018.7 hPa | 158.75 mm | - | - | - |
| 1777746241 | 23.33° C | 42% | 1018.4 hPa | 148.84 mm | - | - | - |
| 1777745941 | 23.33° C | 42% | 1018.4 hPa | 111.51 mm | - | - | - |
| 1777745641 | 23.89° C | 42% | 1018.3 hPa | 102.36 mm | - | - | - |
| 1777745341 | 23.89° C | 41% | 1018.3 hPa | 57.15 mm | - | - | - |
| 1777745041 | 23.89° C | 41% | 1018.4 hPa | 60.2 mm | - | - | - |
| 1777744741 | 24.44° C | 40% | 1018.2 hPa | 230.38 mm | - | - | - |
| 1777744441 | 24.44° C | 40% | 1018.2 hPa | 235.46 mm | - | - | - |
| 1777744141 | 24.44° C | 39% | 1018.2 hPa | 232.92 mm | - | - | - |
| 1777743841 | 25° C | 38% | 1018.2 hPa | 209.55 mm | - | - | - |
| 1777743541 | 25° C | 38% | 1018.3 hPa | 214.38 mm | - | - | - |
| 1777743241 | 25° C | 38% | 1018.1 hPa | 205.99 mm | - | - | - |
| 1777742941 | 25.56° C | 38% | 1018.1 hPa | 191.01 mm | - | - | - |
* Rain latest hour (hover to see other rain measurements)
** Current wind speed in m/s (hover to see current wind gust speed)